Aérodrome :
LOGIN :

S'inscrire | Disclaimer

   EN    FR    IT 

 










Légende :    VFR   VFR Marginal   IFR   IFR Intensif   IFR Très Intensif
Visi : 
Plafond : 
>= 8 km
>= 3000ft
5 à 8 km
1000 à 3000 ft
1500m à 5 km
500 à 1000 ft
800 à 1500m
200 à 500 ft
< 800m
< 200 ft
Symboles :   Orages  Brouillard  Fortes neiges  Fortes précipitations  Vent > 20 kt
SIGMETs :   Divers  Orages  Givrage  Turbulence  Onde Orograph.  Cendres Volcan.






- Altitude de l'aérodrome : 157 ft
- Code IATA : SFT


ESNS - Skellefteå

DERNIER METAR :
  • 221750Z 33005KT 310V010 9999 OVC007 M02/M03 Q0996

METARs EXPIRÉS :
  • 221720Z 35008KT 320V020 9999 OVC007 M01/M02 Q0996
  • 221650Z 32006KT 290V010 9999 -SN OVC007 M01/M02 Q0997
  • 221620Z 35008KT 320V020 7000 -SN OVC006 M01/M02 Q0996
  • 221550Z 35007KT 320V020 5000 -SN BKN005 OVC010 M01/M02 Q0996
  • 221520Z 35007KT 320V020 2500 -SN BKN005 BKN008 OVC010 M01/M01 Q0996
  • 221450Z 34006KT 310V020 2500 SN BKN005 OVC009 M01/M01 Q0997

Prévision TAF périmée.



MET'MAP, la Météo Aéronautique d'un coup d'oeil ! - Copyright ORBIFLY Décembre 2007 - Disclaimer

ORBIFLY MET'MAP TEAM :

Programmation & Développement : Alexandra Zaïnal
Sur une idée originale de : Baudouin d'Aumeries
Assistance à la programmation : Marc-Olivier Méhu
Soutien technique & logistique : Manuel Goepfert

Contact : metmap@orbifly.com




SOURCES & CREDITS :

   NOAA